Regional Weather Roundup
Issued by NWS

Home | Current Version | Previous Version | Text Only | Print | Product List | Glossary Off
Versions: 1 2 3 4 5 6 7 8 9 10 11 12 13 14 15 16 17 18 19 20 21 22 23 24 25 26 27 28 29 30 31 32 33 34 35 36 37 38 39 40 41 42 43 44 45 46 47 48 49 50

735
ASUS43 KMKX 252220
RWRWI

WISCONSIN REGIONAL WEATHER ROUNDUP
NATIONAL WEATHER SERVICE MILWAUKEE/SULLIVAN WI
500 PM CDT WED APR 25 2018

NOTE: "FAIR" INDICATES FEW OR NO CLOUDS BELOW 12,000 FEET WITH NO
SIGNIFICANT WEATHER AND/OR OBSTRUCTIONS TO VISIBILITY.

WIZ001-002-006>008-014>016-023>028-252300-
NORTHWEST WISCONSIN

CITY           SKY/WX    TMP DP  RH WIND       PRES   REMARKS
SUPERIOR ARPT  FAIR      59  22  23 W8        30.01F
ASHLAND        FAIR      50  30  46 N8        30.04F
HAYWARD        FAIR      57  21  24 VRB5      30.03F
SIREN          FAIR      57  20  24 SW6       30.04F
CUMBERLAND     FAIR      52  19  28 CALM      30.05F
RICE LAKE      FAIR      55  23  29 W6        30.06F
CHETEK         FAIR      55  27  33 CALM      30.04F
LADYSMITH      FAIR      56  21  25 NW3       30.04F
EAU CLAIRE     FAIR      58  24  27 W6        30.03F
MENOMONIE      FAIR      59  23  25 SW7       30.04F
NEW RICHMOND   FAIR      58  17  20 SW3       30.06F
OSCEOLA        FAIR      58  19  22 CALM      30.09F
$$

WIZ003>005-009-010-017-018-252300-
NORTH CENTRAL WISCONSIN

CITY           SKY/WX    TMP DP  RH WIND       PRES   REMARKS
MANITOWISH WTR FAIR      50  19  30 NW3       30.02F
ARBOR VITAE    FAIR      52  20  28 SW5       30.03F
WOODRUFF       FAIR      52  20  28 SW5       30.03F
RHINELANDER    FAIR      53  19  26 CALM      30.03F
EAGLE RIVER    FAIR      51  15  23 N5        30.01F
LAND O LAKES   FAIR      51  14  23 W5        30.03F
PHILLIPS       FAIR      54  23  29 NW5       30.02F
TOMAHAWK       FAIR      53  19  26 N6        30.04F
MEDFORD        FAIR      53  26  35 NW5       30.03F
MERRILL        FAIR      56  24  29 W5        30.03F
$$

WIZ029-030-035-036-043>047-252300-
CENTRAL WISCONSIN

CITY           SKY/WX    TMP DP  RH WIND       PRES   REMARKS
WAUSAU         FAIR      56  23  27 N7        30.01F
MOSINEE        MOSUNNY   54  27  35 NW5       30.04F
MARSHFIELD     FAIR      55  29  36 NW9       30.02F
STEVENS POINT  FAIR      53  25  33 NW6       30.03F
WAUPACA        FAIR      58  25  28 NW8       30.03F
WAUTOMA        FAIR      56  25  30 VRB6      30.04F
WISC RAPIDS    FAIR      56  27  32 W8        30.04F
CAMP DOUGLAS   SUNNY     59  27  29 N8        30.03F
$$

WIZ011>013-019>022-031-037>040-048>050-252300-
NORTHEAST WISCONSIN

CITY           SKY/WX    TMP DP  RH WIND       PRES   REMARKS
ANTIGO         FAIR      52  26  36 NW6       30.03S
SHAWANO        FAIR      58  25  28 CALM      30.01F
OCONTO         FAIR      47  29  48 S8        30.04F
STURGEON BAY   FAIR      50  28  42 CALM      30.05F
GREEN BAY      FAIR      55  34  45 W10       30.04F
MANITOWOC      FAIR      50  31  48 NE8       30.05F
APPLETON       MOSUNNY   54  25  32 NW7       30.03F
CLINTONVILLE   FAIR      55  24  30 NW3       30.03F
OSHKOSH        FAIR      51  33  50 E7        30.04F
$$

WIZ032>034-041-042-053>061-252300-
SOUTHWEST WISCONSIN

CITY           SKY/WX    TMP DP  RH WIND       PRES   REMARKS
LA CROSSE      FAIR      61  29  29 W9        30.04F
SPARTA         FAIR      60  26  27 N9        30.04F
VIROQUA        FAIR      58  31  36 CALM      30.04F
BOSCOBEL       FAIR      64  29  26 NW8       30.03F
PRAIRIE DU CHI FAIR      62  20  20 NW8       30.03F
PLATTEVILLE    FAIR      62  31  30 N8        30.03F
$$

WIZ056-057-062-063-064-067-068-252300-
SOUTH CENTRAL WISCONSIN

CITY           SKY/WX    TMP DP  RH WIND       PRES   REMARKS
REEDSBURG      FAIR      58  27  30 NW9       30.03F
BARABOO/DELLS  FAIR      58  23  25 N8        30.03F
LONE ROCK      FAIR      61  27  27 NE7       30.02F
MINERAL POINT  FAIR      61  23  23 CALM      30.03F
MADISON        FAIR      60  26  27 N8        30.02F
MIDDLETON      FAIR      60  25  26 NW7       30.03F
WATERTOWN      FAIR      56  30  37 N5        30.03S
MONROE         FAIR      59  25  27 N10       30.01F
JANESVILLE     MOSUNNY   61  27  27 N12G17    30.02F
$$

WIZ051-052-058>065-066-070>072-252300-
SOUTHEAST WISCONSIN

CITY           SKY/WX    TMP DP  RH WIND       PRES   REMARKS
MILWAUKEE      FAIR      45  30  55 NE13G20   30.07F
WAUKESHA       SUNNY     48  30  49 E9        30.05F
MILWAUKEE/TIMM SUNNY     46  25  42 NE13G18   30.06F
RACINE         FAIR      44  31  60 NE13      30.08F
BURLINGTON     FAIR      52  32  45 NE12      30.04R
KENOSHA        FAIR      47  30  51 NE15G22   30.06S
FOND DU LAC    FAIR      51  31  46 NE8       30.05F
SHEBOYGAN      FAIR      48  33  56 E10       30.04F
WEST BEND      FAIR      52  32  46 E7        30.04S
JUNEAU         FAIR      54  31  41 N6        30.04F
$$

LSZ147-162-252300-
LAKE SUPERIOR

STATION/POSITION TIME  TEMP    WIND        PRES    WAVE
                       AIR SEA DIR/SP/G            HT/PER
                 (UTC) (F)     (DEG/KT/KT) (MB)    (FT/S)
DEVILS ISLAND    2200   41        CALM     1017.7F
SAXON HARBOR     2130   39     330/  1/  2 1017.6F
$$

LMZ867-665-643>646-252300-
LAKE MICHIGAN

STATION/POSITION TIME  TEMP    WIND        PRES    WAVE
                       AIR SEA DIR/SP/G            HT/PER
                 (UTC) (F)     (DEG/KT/KT) (MB)    (FT/S)
NORTHPORT PIER   2140   42                 1017.3F
KEWAUNEE LAKESHO 2154   41     100/  3/  5 1017.3F
SHEBOYGAN LAKESH 2200   38      60/  9/ 10 1017.9F
PORT WASHINGTON  2140   42      40/  7/ 10 1019.0F
MILWAUKEE LAKESH 2200   39      40/  8/  9   N/A
KENOSHA   LAKESH 2200   39                 1018.3
$$

TC  - TEMPERATURE IN CELSIUS
VSB - VISIBILITY IN STATUTE MILES
WCI - WIND CHILL INDEX
HX  - HEAT INDEX





USA.gov is the U.S. government's official web portal to all federal, state and local government web resources and services.